[Iaude] MPEC E178: 2024 EZ3 [a=0.95,e=0.16,i=7.8,H=25.8]
    mpec at cfa.harvard.edu 
    mpec at cfa.harvard.edu
       
    Wed Mar 13 22:52:47 EDT 2024
    
    
  
M.P.E.C. 2024-E178                               Issued 2024 March 14, 02:50 UT
     The Minor Planet Electronic Circulars contain information on unusual
         minor planets, routine data on comets and natural satellites,
         and occasional editorial announcements.  They are published
    on behalf of Division F of the International Astronomical Union by the
          Minor Planet Center, Smithsonian Astrophysical Observatory,
                          Cambridge, MA 02138, U.S.A.
			  
             Prepared using the Tamkin Foundation Computer Network
                              MPC at CFA.HARVARD.EDU
            URL https://www.minorplanetcenter.net/    ISSN 1523-6714
                                    2024 EZ3                                    
Observations:
     K24E03Z  C2024 03 02.62263812 33 10.323+28 25 56.02         21.10GVEE178F52
     K24E03Z  C2024 03 02.63587412 33 05.692+28 25 54.97         21.73GVEE178F52
     K24E03Z  C2024 03 02.64252712 33 03.396+28 25 54.26         21.31GVEE178F52
     K24E03Z*1C2024 03 13.26122010 48 19.980+25 27 17.78         19.66GVEE178G96
     K24E03Z 1C2024 03 13.26640510 48 14.339+25 26 59.57         19.80GVEE178G96
     K24E03Z 1C2024 03 13.27157710 48 08.759+25 26 41.28         19.72GVEE178G96
     K24E03Z 1C2024 03 13.27676810 48 03.110+25 26 23.03         19.70GVEE178G96
     K24E03Z mC2024 03 13.34760810 46 46.024+25 22 00.34         19.65GVEE178I52
     K24E03Z mC2024 03 13.34785810 46 45.750+25 21 59.18         19.47GVEE178I52
     K24E03Z mC2024 03 13.34810910 46 45.476+25 21 58.54         20.16GVEE178I52
     K24E03Z mC2024 03 13.34837010 46 45.170+25 21 57.78         20.17GVEE178I52
     K24E03Z mC2024 03 13.44980610 44 56.159+25 15 07.56         19.87GVEE178I52
     K24E03Z mC2024 03 13.45005810 44 55.921+25 15 06.34         19.30GVEE178I52
     K24E03Z mC2024 03 13.45030910 44 55.651+25 15 05.83         21.14GVEE178I52
     K24E03Z mC2024 03 13.45056510 44 55.334+25 15 04.79         19.90GVEE178I52
     K24E03Z KB2024 03 13.79828310 39 20.37 +24 51 47.9          19.1 GXEE178I93
     K24E03Z KB2024 03 13.80324310 39 14.91 +24 51 29.5          19.6 GXEE178I93
     K24E03Z KC2024 03 13.80696 10 39 05.042+24 51 03.06         19.9 GVEE178B42
     K24E03Z KB2024 03 13.80806310 39 09.65 +24 51 11.6          19.6 GXEE178I93
     K24E03Z KC2024 03 13.80850 10 39 03.312+24 50 56.90         19.4 GVEE178B42
     K24E03Z KC2024 03 13.80976 10 39 01.939+24 50 51.76         19.5 GVEE178B42
     K24E03Z KC2024 03 13.81368810 39 01.47 +24 51 00.5          20.2 GVEE178L01
     K24E03Z KC2024 03 13.81517110 38 59.79 +24 50 55.2          19.9 GVEE178L01
     K24E03Z KC2024 03 13.81665210 38 58.14 +24 50 49.7          19.9 GVEE178L01
     K24E03Z KC2024 03 13.82451210 38 51.94 +24 50 12.9          19.0 GXEE178958
     K24E03Z KB2024 03 13.82693 10 38 48.199+24 50 08.05         19.3 VZEE178C95
     K24E03Z KC2024 03 13.82938210 38 46.59 +24 49 53.6          18.9 GXEE178958
     K24E03Z KC2024 03 13.83425310 38 41.14 +24 49 36.2          18.9 GXEE178958
     K24E03Z KC2024 03 13.83542910 38 37.92 +24 49 39.9          19.5 GVEE178104
     K24E03Z KC2024 03 13.84121210 38 31.50 +24 49 17.5          20.2 GVEE178104
     K24E03Z KC2024 03 13.84699410 38 25.01 +24 48 55.2          19.4 GVEE178104
     K24E03Z KB2024 03 13.85079 10 38 21.804+24 48 38.34         20.2 VZEE178C95
     K24E03Z KC2024 03 13.86518010 38 03.93 +24 47 38.2          19.6 GXEE178595
     K24E03Z KC2024 03 13.87465710 37 53.28 +24 47 00.5          19.8 GXEE178595
     K24E03Z KB2024 03 13.88388 10 37 44.63 +24 46 27.3          19.0 GXEE178K19
     K24E03Z KC2024 03 13.88413410 37 42.63 +24 46 22.4          19.7 GXEE178595
     K24E03Z KB2024 03 13.88763 10 37 40.31 +24 46 12.9          18.4 GXEE178K19
     K24E03Z KB2024 03 13.89128 10 37 36.32 +24 45 59.1          19.7 GXEE178K19
     K24E03Z KC2024 03 13.90616 10 37 18.26 +24 45 01.2          19.7 GXEE178K83
     K24E03Z KC2024 03 13.91140 10 37 12.36 +24 44 39.0          19.8 GXEE178K83
     K24E03Z KC2024 03 13.91665 10 37 06.40 +24 44 17.0          19.8 GXEE178K83
     K24E03Z $C2024 03 13.96850410 36 13.910+24 41 38.30         19.6 GVEE178J04
     K24E03Z $C2024 03 13.96969810 36 12.533+24 41 33.30         19.5 GVEE178J04
     K24E03Z $C2024 03 13.97088610 36 11.147+24 41 28.47         19.6 GVEE178J04
Observer details:
104 San Marcello Pistoiese.  Observers P. Bacci, M. Maestripieri.  Measurers
    P. Bacci, L. Tesi, G. Fagioli.  0.60-m F4 Reflector + CCD.
595 Farra d'Isonzo.  Observers G. Panterotto, E. Pettarin.  Measurer E.
    Pettarin.  0.61-m f/4.5 reflector + CCD.
958 Observatoire de Dax.  Observers P. Dupouy, J. B. de Vanssay.  Measurer P.
    Dupouy.  0.43-m f/2.7 Reflector + CCD.
B42 Vitebsk.  Observer V. Nevski.  0.3-m f/5.0 0.3-m f/5.0 reflector + CCD.
C95 SATINO Remote Observatory, Haute Provence.  Observer D. Husar.  0.30-m
    f/5.8 reflector + CMO.
F52 Pan-STARRS 2, Haleakala.  Observers J. Herman, T. Lowe, P. Minguez, A.
    Schultz, I. Smith.  Measurers K. Chambers, T. de Boer, J. Fairlamb, H.
    Gao, M. Huber, C.-C. Lin, E. Magnier, Y. Ramanjooloo, R. Wainscoat, R.
    Weryk.  1.8-m Ritchey-Chretien + CCD.
G96 Mt. Lemmon Survey.  Observer J. K. Hogan.  Measurers T. Beuden, V. F.
    Carvajal, D. Fay, J. B. Fazekas, D. C. Fuls, A. R. Gibbs, A. D. Grauer, H.
    Groeller, J. K. Hogan, R. A. Kowalski, S. M. Larson, G. J. Leonard, D.
    Rankin, R. L. Seaman, F. C. Shelly, K. W. Wierzchos.  1.5-m reflector +
    10K CCD.
I52 Steward Observatory, Mt. Lemmon Station.  Observer G. J. Leonard.
    Measurers T. Beuden, V. F. Carvajal, D. Fay, J. B. Fazekas, D. C. Fuls, A.
    R. Gibbs, A. D. Grauer, H. Groeller, J. K. Hogan, R. A. Kowalski, S. M.
    Larson, G. J. Leonard, D. Rankin, R. L. Seaman, F. C. Shelly, K. W.
    Wierzchos.  1.0-m prime focus + CCD.
I93 St Pardon de Conques.  Observer F. Losse.  0.40-m f/3.7 reflector + CCD.
J04 ESA Optical Ground Station, Tenerife.  Observers D. Abreu, F. Ocana, M.
    Micheli, L. Conversi.  Measurers F. Ocana, M. Micheli, R. Kresken.
    0.8-m f/3 Schmidt + CCD.
K19 PASTIS Observatory, Banon.  Observer C. Demeautis.  0.28-m f/2.2 reflector
    + CMO.
K83 Beppe Forti Astronomical Observatory, Montelupo.  Observers M. Tombelli,
    M. Iozzi, F. Cheli.  Measurers M. Tombelli, F. Bernardi.  0.40-m f/8
    Ritchey-Chretien + CCD.
L01 Visnjan Observatory, Tican.  Observers K. Korlevic, I. Lyon.  Measurer K.
    Korlevic.  1.0-m f/2.9 reflector + CCD.
Orbital elements:
2024 EZ3                                                 Earth MOID = 0.0144 AU
Epoch 2024 Mar. 31.0 TT = JDT 2460400.5                 Veres                   
M 264.62142              (2000.0)            P               Q                  
n   1.06958552     Peri.  305.34855     +0.52999882     +0.84796090             
a   0.9469471      Node   356.62692     -0.72742141     +0.44978580             
e   0.1632154      Incl.    7.78799     -0.43584326     +0.28045508             
P   0.92           H   25.84          G   0.15           U   5                  
Residuals in seconds of arc
240302 F52  0.1-  0.1-    240313 I93  1.3+  0.2+    240313 104  0.5-  0.0
240302 F52  0.1-  0.0     240313 I93  0.3+  0.1+    240313 C95  0.9+  0.8+
240302 F52  0.2+  0.0     240313 B42  0.4+  0.3-    240313 595  0.5-  0.3-
240313 G96  0.0   0.0     240313 I93  0.1+  0.0     240313 595  0.3-  0.3-
240313 G96  0.3-  0.0     240313 B42  0.0   0.4-    240313 K19  0.2+  0.3-
240313 G96  0.2+  0.1-    240313 B42  0.2+  0.6-    240313 595  0.2+  0.3-
240313 G96  0.1+  0.1+    240313 L01  0.4+  0.3-    240313 K19  1.0-  0.2+
240313 I52  0.2+  0.1+    240313 L01  0.1-  0.1+    240313 K19  0.8+  1.0+
240313 I52  0.2+  0.1-    240313 L01  0.2-  0.2+    240313 K83  0.5-  0.6+
240313 I52  0.1+  0.2+    240313 958  0.5+  0.5+    240313 K83  0.3+  0.1-
240313 I52  0.2-  0.4+    240313 C95  0.5-  0.6-    240313 K83  0.4+  0.4-
240313 I52  0.3-  0.2-    240313 958  0.5+  0.5-    240313 J04  0.1+  0.0
240313 I52  0.1+  0.4-    240313 958  0.7-  0.4+    240313 J04  0.1+  0.1-
240313 I52  0.1+  0.2+    240313 104  0.5-  0.0     240313 J04  0.0   0.0
240313 I52  0.6-  0.2+    240313 104  0.1-  0.1-
Ephemeris:
2024 EZ3                 a,e,i = 0.95, 0.16, 8                   q = 0.7924
Date    TT    R. A. (2000) Decl.     Delta      r    Elong.  Phase     V
2024 02 13    13 11 14.4 +26 40 43   0.1379  1.0807   129.8    44.6    23.4
...
2024 02 28    12 48 33.3 +28 11 00   0.08238 1.0581   144.0    33.4    21.9
...
2024 03 07    12 04 16.2 +28 19 19   0.05593 1.0428   153.7    24.9    20.8
...
2024 03 13    10 52 35.6 +25 42 48   0.03953 1.0300   155.3    23.8    20.0
2024 03 14    10 35 37.2 +24 39 46   0.03732 1.0277   153.5    25.6    19.9
2024 03 15    10 17 03.0 +23 19 52   0.03533 1.0255   150.8    28.2    19.9
...
2024 03 21    08 02 59.8 +08 35 17   0.02974 1.0112   119.8    58.7    20.3
...
2024 03 29    05 39 36.4 -11 52 23   0.04070 0.9908    78.1    99.6    22.5
...
2024 04 13    03 53 05.2 -22 21 18   0.08258 0.9492    47.8   128.5    25.9
M. P. C. Staff               (C) Copyright 2024 MPC           M.P.E.C. 2024-E178
    
    
More information about the Iaude
mailing list